TimePST,TemperatureF,Dew PointF,Humidity,Sea Level PressureIn,VisibilityMPH,Wind Direction,Wind SpeedMPH,Gust SpeedMPH,PrecipitationIn,Events,Conditions,WindDirDegrees,DateUTC
12:15 AM,24.8,19.4,80,30.26,6.0,Calm,Calm,-,N/A,,Clear,0,2013-01-08 08:15:00
12:25 AM,21.2,17.6,86,30.27,2.5,SSW,3.5,-,N/A,,Clear,200,2013-01-08 08:25:00
12:33 AM,23.0,19.4,86,30.27,5.0,Calm,Calm,-,N/A,,Clear,0,2013-01-08 08:33:00
12:53 AM,21.9,19.0,89,30.29,7.0,Calm,Calm,-,N/A,,Clear,0,2013-01-08 08:53:00
1:53 AM,21.0,16.0,81,30.28,7.0,Calm,Calm,-,N/A,,Clear,0,2013-01-08 09:53:00
2:53 AM,19.0,15.1,85,30.28,7.0,South,3.5,-,N/A,,Clear,180,2013-01-08 10:53:00
3:53 AM,17.1,12.0,81,30.30,9.0,Calm,Calm,-,N/A,,Clear,0,2013-01-08 11:53:00
4:53 AM,19.0,14.0,81,30.32,8.0,SSW,3.5,-,N/A,,Clear,210,2013-01-08 12:53:00
6:53 AM,18.0,12.9,81,30.35,10.0,South,3.5,-,N/A,,Clear,170,2013-01-08 14:53:00
7:53 AM,16.0,10.9,81,30.40,9.0,Calm,Calm,-,N/A,,Clear,0,2013-01-08 15:53:00
8:53 AM,19.9,16.0,85,30.40,8.0,South,3.5,-,N/A,,Clear,190,2013-01-08 16:53:00
9:53 AM,27.0,25.0,92,30.38,10.0,Calm,Calm,-,N/A,,Clear,0,2013-01-08 17:53:00
10:53 AM,33.1,28.9,85,30.33,5.0,Calm,Calm,-,N/A,,Clear,0,2013-01-08 18:53:00
11:53 AM,43.0,30.9,62,30.27,10.0,NNE,4.6,-,N/A,,Clear,30,2013-01-08 19:53:00
12:53 PM,43.0,32.0,65,30.25,10.0,NNE,8.1,-,N/A,,Clear,30,2013-01-08 20:53:00
1:53 PM,43.0,32.0,65,30.25,10.0,NNE,8.1,-,N/A,,Clear,30,2013-01-08 21:53:00
2:53 PM,46.0,32.0,58,30.25,10.0,NE,4.6,-,N/A,,Clear,40,2013-01-08 22:53:00
4:53 PM,35.1,28.9,78,30.31,10.0,Calm,Calm,-,N/A,,Clear,0,2013-01-09 00:53:00
5:53 PM,30.0,26.1,85,30.33,10.0,SSW,3.5,-,N/A,,Clear,200,2013-01-09 01:53:00
6:45 PM,30.2,24.8,80,30.25,4.0,Calm,Calm,-,N/A,,Haze,0,2013-01-09 02:45:00
6:53 PM,28.9,26.1,89,30.33,2.5,Calm,Calm,-,N/A,,Clear,0,2013-01-09 02:53:00
6:58 PM,28.4,24.8,86,30.25,0.8,Calm,Calm,-,N/A,,Clear,0,2013-01-09 02:58:00
7:53 PM,25.0,21.9,88,30.37,0.5,South,3.5,-,N/A,Fog,Light Freezing Fog,180,2013-01-09 03:53:00
9:26 PM,24.8,19.4,80,30.26,1.0,Calm,Calm,-,N/A,,Clear,0,2013-01-09 05:26:00
9:40 PM,23.0,19.4,86,30.26,0.2,Calm,Calm,-,N/A,Fog,Light Freezing Fog,0,2013-01-09 05:40:00
9:53 PM,25.0,21.0,85,30.33,1.2,SSW,3.5,-,N/A,,Clear,200,2013-01-09 05:53:00
9:57 PM,24.8,21.2,86,30.27,3.0,South,3.5,-,N/A,,Clear,180,2013-01-09 05:57:00
10:06 PM,21.2,17.6,86,30.27,5.0,Calm,Calm,-,N/A,,Clear,0,2013-01-09 06:06:00
10:34 PM,23.0,19.4,86,30.26,3.0,South,3.5,-,N/A,,Clear,190,2013-01-09 06:34:00
10:42 PM,21.2,17.6,86,30.26,4.0,South,3.5,-,N/A,,Partly Cloudy,190,2013-01-09 06:42:00
10:53 PM,21.9,18.0,85,30.30,5.0,South,3.5,-,N/A,,Partly Cloudy,190,2013-01-09 06:53:00
11:53 PM,23.0,19.0,85,30.25,5.0,Calm,Calm,-,N/A,,Clear,0,2013-01-09 07:53:00